Location: Courçay
(47.2523°N, 0.8761°E)
Time: 23:37:56
(UTC+00:00)

SJ 16-02 - Pass Details

Date: 18 November 2025
Orbit: 585 x 594 km, 75.0° (Epoch: 05 December)

Event Time Altitude Azimuth Distance (km) Brightness Sun altitude
Rises 19:55:45 0° 255° (WSW) 2,832 5.5 -36.7°
Reaches altitude 10° 19:59:22 10° 287° (WNW) 1,935 4.6 -37.3°
Enters shadow 20:00:38 12° 305° (NW) 1,814 4.4 -37.5°
